From 01/08/2022 00:00 to 01/25/2022 00:00

Date LAKE ELEVATION [FT] PRECIPITATION INCREMENT [IN] PRECIPITATION TOTAL [IN] AIR TEMPERATURE [F] RELATIVE HUMIDITY [%] RELEASE [CFS]
01/22/2022 23:00 -- -- -- -- -- 67.0
01/22/2022 22:00 114.97 0.00 -- 13.0 -- 66.5
01/22/2022 21:00 114.98 0.00 -- 13.0 -- 67.0
01/22/2022 20:00 114.98 0.00 -- 14.0 -- 67.5
01/22/2022 19:00 114.98 0.00 -- 15.0 -- 67.3
01/22/2022 18:00 114.99 0.00 -- 17.0 -- 67.8
01/22/2022 17:00 114.99 0.00 -- 20.0 -- 68.0
01/22/2022 16:00 114.99 0.00 -- 22.0 -- 68.8
01/22/2022 15:00 114.99 0.00 -- 23.0 -- 68.5
01/22/2022 14:00 114.99 0.00 -- 22.0 -- 69.0
01/22/2022 13:00 114.99 0.00 -- 21.0 -- 69.0
01/22/2022 12:00 115.00 0.00 -- 19.0 -- 69.8
01/22/2022 11:00 114.99 0.00 -- 16.0 -- 69.5
01/22/2022 10:00 115.00 0.00 -- 13.0 -- 70.0
01/22/2022 09:00 115.00 0.00 -- 8.0 -- 69.8
01/22/2022 08:00 115.01 0.00 -- 5.0 -- 71.0
01/22/2022 07:00 115.01 0.00 -- 5.0 -- 71.0
01/22/2022 06:00 115.02 0.00 -- 6.0 -- 71.3
01/22/2022 05:00 115.01 0.00 -- 6.0 -- 72.0
01/22/2022 04:00 115.02 0.00 -- 7.0 -- 72.8
01/22/2022 03:00 115.02 0.00 -- 7.0 -- 73.0
01/22/2022 02:00 115.02 0.00 -- 8.0 -- 73.0
01/22/2022 01:00 115.03 0.00 -- 8.0 -- 73.3
01/22/2022 00:00 115.02 0.00 -- 9.0 -- 73.5
01/21/2022 23:00 115.03 0.00 -- 8.0 -- 73.5
01/21/2022 22:00 115.03 0.00 -- 9.0 -- 73.5
01/21/2022 21:00 115.03 0.00 -- 11.0 -- 73.5
01/21/2022 20:00 115.03 0.00 -- 11.0 -- 74.0
01/21/2022 19:00 115.03 0.00 -- 13.0 -- 74.0
01/21/2022 18:00 115.03 0.00 -- 14.0 -- 74.0
01/21/2022 17:00 115.03 0.00 -- 18.0 -- 74.0
01/21/2022 16:00 115.03 0.00 -- 19.0 -- 74.3
01/21/2022 15:00 115.03 0.00 -- 18.0 -- 74.0
01/21/2022 14:00 115.04 0.00 -- 18.0 -- 74.3
01/21/2022 13:00 115.03 0.00 -- 16.0 -- 74.3
01/21/2022 12:00 115.03 0.00 -- 13.0 -- 73.3
01/21/2022 11:00 115.03 0.00 -- 10.0 -- 74.0
01/21/2022 10:00 115.03 0.00 -- 7.0 -- 74.0
01/21/2022 09:00 115.03 0.00 -- 6.0 -- 74.0
01/21/2022 08:00 115.03 0.00 -- 5.0 -- 74.3
01/21/2022 07:00 115.04 0.00 -- 5.0 -- 75.0
01/21/2022 06:00 115.04 0.00 -- 6.0 -- 76.0
01/21/2022 05:00 115.05 0.00 -- 7.0 -- 76.3
01/21/2022 04:00 115.06 0.00 -- 8.0 -- 78.0
01/21/2022 03:00 115.07 0.00 -- 9.0 -- 78.8
01/21/2022 02:00 115.07 0.00 -- 11.0 -- 79.8
01/21/2022 01:00 115.08 0.00 -- 12.0 -- 80.3
01/21/2022 00:00 115.08 0.00 0.00 13.0 -- 80.3
01/20/2022 23:00 115.08 0.00 -- 15.0 -- 80.8
01/20/2022 22:00 115.08 0.00 -- 17.0 -- 80.8
01/20/2022 21:00 115.08 0.00 -- 19.0 -- 80.8
01/20/2022 20:00 115.08 0.00 -- 21.0 -- 81.0
01/20/2022 19:00 115.09 0.00 -- 23.0 -- 81.8
01/20/2022 18:00 115.08 0.00 -- 25.0 -- 81.3
01/20/2022 17:00 115.08 0.00 -- 27.0 -- 80.8
01/20/2022 16:00 115.08 0.00 -- 29.0 -- 81.3
01/20/2022 15:00 115.08 0.01 -- 31.0 -- 80.8
01/20/2022 14:00 115.09 0.00 -- 32.0 -- 82.0
01/20/2022 13:00 115.08 0.00 -- 32.0 -- 81.5
01/20/2022 12:00 115.09 0.00 -- 34.0 -- 82.0
01/20/2022 11:00 115.08 0.00 -- 35.0 -- 81.0
01/20/2022 10:00 115.08 0.00 -- 35.0 -- 80.5
01/20/2022 09:00 115.08 0.00 -- 35.0 -- 80.8
01/20/2022 08:00 115.08 0.00 -- 34.0 -- 80.5
01/20/2022 07:00 115.08 0.00 -- 34.0 -- 80.3
01/20/2022 06:00 115.08 0.02 -- 35.0 -- 80.0
01/20/2022 05:00 115.07 0.00 -- 36.0 -- 80.0
01/20/2022 04:00 115.07 0.00 -- 35.0 -- 79.5
01/20/2022 03:00 115.08 0.00 -- 37.0 -- 80.0
01/20/2022 02:00 115.07 0.00 -- 38.0 -- 80.0
01/20/2022 01:00 115.07 0.00 -- 37.0 -- 79.0
01/20/2022 00:00 115.07 0.00 0.03 37.0 -- 79.3
01/19/2022 23:00 115.07 0.00 -- 38.0 -- 78.8
01/19/2022 22:00 115.06 0.00 -- 37.0 -- 78.5
01/19/2022 21:00 115.06 0.00 -- 32.0 -- 78.3
01/19/2022 20:00 115.06 0.00 -- 31.0 -- 78.0
01/19/2022 19:00 115.06 0.00 -- 34.0 -- 78.0
01/19/2022 18:00 115.06 0.00 -- 38.0 -- 77.8
01/19/2022 17:00 115.06 0.00 -- 41.0 -- 77.0
01/19/2022 16:00 115.05 0.00 -- 43.0 -- 76.8
01/19/2022 15:00 115.06 0.00 -- 44.0 -- 76.5
01/19/2022 14:00 115.05 0.00 -- 44.0 -- 75.3
01/19/2022 13:00 115.05 0.00 -- 41.0 -- 75.3
01/19/2022 12:00 115.04 0.00 -- 38.0 -- 75.5
01/19/2022 11:00 115.04 0.00 -- 33.0 -- 75.0
01/19/2022 10:00 115.04 0.00 -- 25.0 -- 74.0
01/19/2022 09:00 115.03 0.00 -- 21.0 -- 74.0
01/19/2022 08:00 115.03 0.00 -- 19.0 -- 73.5
01/19/2022 07:00 115.03 0.00 -- 17.0 -- 73.3
01/19/2022 06:00 115.02 0.00 -- 15.0 -- 73.0
01/19/2022 05:00 115.03 0.00 -- 14.0 -- 73.0
01/19/2022 04:00 115.03 0.00 -- 13.0 -- 73.3
01/19/2022 03:00 115.03 0.00 -- 13.0 -- 73.5
01/19/2022 02:00 115.03 0.00 -- 13.0 -- 73.3
01/19/2022 01:00 115.03 0.00 -- 14.0 -- 73.0
01/19/2022 00:00 115.02 0.00 0.00 15.0 -- 74.3
01/18/2022 23:00 115.04 0.00 -- 15.0 -- 74.5
01/18/2022 22:00 115.03 0.00 -- 16.0 -- 74.3
01/18/2022 21:00 115.03 0.00 -- 17.0 -- 73.5
01/18/2022 20:00 115.03 0.00 -- 19.0 -- 73.3
01/18/2022 19:00 115.03 0.00 -- 20.0 -- 73.0
01/18/2022 18:00 115.02 0.00 -- 21.0 -- 72.8
01/18/2022 17:00 115.02 0.00 -- 23.0 -- 72.3
01/18/2022 16:00 115.02 0.00 -- 24.0 -- 72.3
01/18/2022 15:00 115.02 0.00 -- 25.0 -- 72.0
01/18/2022 14:00 115.01 0.00 -- 25.0 -- 71.0
01/18/2022 13:00 115.02 0.00 -- 25.0 -- 70.8
01/18/2022 12:00 115.01 0.00 -- 25.0 -- 70.3
01/18/2022 11:00 115.01 0.00 -- 25.0 -- 70.0
01/18/2022 10:00 114.99 0.00 -- 24.0 -- 70.3
01/18/2022 09:00 114.99 0.00 -- 25.0 -- 69.0
01/18/2022 08:00 114.99 0.00 -- 25.0 -- 68.8
01/18/2022 07:00 115.00 0.00 -- 26.0 -- 68.3
01/18/2022 06:00 114.98 0.00 -- 27.0 -- 68.0
01/18/2022 05:00 114.99 0.00 -- 28.0 -- 68.3
01/18/2022 04:00 114.99 0.00 -- 30.0 -- 67.5
01/18/2022 03:00 114.98 0.00 -- 31.0 -- 66.5
01/18/2022 02:00 114.97 0.00 -- 32.0 -- 66.3
01/18/2022 01:00 114.97 0.02 -- 33.0 -- 65.3
01/18/2022 00:00 114.97 0.00 0.02 34.0 -- 64.5
01/17/2022 23:00 114.95 0.00 -- 34.0 -- 63.3
01/17/2022 22:00 114.94 0.00 -- 34.0 -- 62.3
01/17/2022 21:00 114.94 0.00 -- 36.0 -- 61.0
01/17/2022 20:00 114.93 0.00 -- 36.0 -- 61.0
01/17/2022 19:00 114.92 0.00 -- 37.0 -- 59.5
01/17/2022 18:00 114.91 0.00 -- 38.0 -- 58.3
01/17/2022 17:00 114.90 0.00 -- 40.0 -- 56.8
01/17/2022 16:00 114.89 0.00 -- 41.0 -- 55.3
01/17/2022 15:00 114.89 0.00 -- 43.0 -- 54.3
01/17/2022 14:00 114.88 0.00 -- 46.0 -- 52.8
01/17/2022 13:00 114.86 0.00 -- 47.0 -- 51.8
01/17/2022 12:00 114.85 0.01 -- 46.0 -- 50.8
01/17/2022 11:00 114.84 0.10 -- 46.0 -- 49.0
01/17/2022 10:00 114.82 0.16 -- 45.0 -- 47.3
01/17/2022 09:00 114.80 0.18 -- 42.0 -- 44.8
01/17/2022 08:00 114.77 0.16 -- 39.0 -- 43.3
01/17/2022 07:00 114.76 0.28 -- 37.0 -- 41.8
01/17/2022 06:00 114.72 0.28 -- 36.0 -- 40.0
01/17/2022 05:00 114.70 0.16 -- 35.0 -- 39.0
01/17/2022 04:00 114.69 0.00 -- 34.0 -- 38.8
01/17/2022 03:00 114.68 0.00 -- 33.0 -- 38.3
01/17/2022 02:00 114.69 0.00 -- 22.0 -- 38.8
01/17/2022 01:00 114.69 0.00 -- 21.0 -- 39.0
01/17/2022 00:00 114.69 0.00 1.33 20.0 -- 39.0
01/16/2022 23:00 114.69 0.00 -- 20.0 -- 39.0
01/16/2022 22:00 114.69 0.00 -- 19.0 -- 39.0
01/16/2022 21:00 114.69 0.00 -- 18.0 -- 39.0
01/16/2022 20:00 114.69 0.00 -- 18.0 -- 39.0
01/16/2022 19:00 114.69 0.00 -- 18.0 -- 39.0
01/16/2022 18:00 114.70 0.00 -- 19.0 -- 39.0
01/16/2022 17:00 114.70 0.00 -- 22.0 -- 39.0
01/16/2022 16:00 114.70 0.00 -- 24.0 -- 39.0
01/16/2022 15:00 114.70 0.00 -- 24.0 -- 39.0
01/16/2022 14:00 114.70 0.00 -- 24.0 -- 39.0
01/16/2022 13:00 114.72 0.00 -- 20.0 -- 39.3
01/16/2022 12:00 114.71 0.00 -- 17.0 -- 40.0
01/16/2022 11:00 114.70 0.00 -- 14.0 -- 39.8
01/16/2022 10:00 114.72 0.00 -- 9.0 -- 40.0
01/16/2022 09:00 114.72 0.00 -- 5.0 -- 40.8
01/16/2022 08:00 114.73 0.00 -- 0.0 -- 41.0
01/16/2022 07:00 114.73 0.00 -- -1.0 -- 41.0
01/16/2022 06:00 114.73 0.00 -- 0.0 -- 41.0
01/16/2022 05:00 114.73 0.00 -- 1.0 -- 41.0
01/16/2022 04:00 114.76 0.00 -- 2.0 -- 43.8
01/16/2022 03:00 114.77 0.00 -- 2.0 -- 44.8
01/16/2022 02:00 114.78 0.00 -- 2.0 -- 44.5
01/16/2022 01:00 114.76 0.00 -- 2.0 -- 43.0
01/16/2022 00:00 114.76 0.00 0.00 2.0 -- 43.0
01/15/2022 23:00 114.75 0.00 -- 2.0 -- 42.8
01/15/2022 22:00 114.75 0.00 -- 3.0 -- 42.5
01/15/2022 21:00 114.75 0.00 -- 4.0 -- 42.0
01/15/2022 20:00 114.75 0.00 -- 5.0 -- 42.3
01/15/2022 19:00 114.75 0.00 -- 6.0 -- 42.0
01/15/2022 18:00 114.75 0.00 -- 7.0 -- 42.3
01/15/2022 17:00 114.74 0.00 -- 7.0 -- 42.0
01/15/2022 16:00 114.75 0.00 -- 8.0 -- 42.5
01/15/2022 15:00 114.75 0.00 -- 9.0 -- 42.3
01/15/2022 14:00 114.75 0.00 -- 9.0 -- 42.5
01/15/2022 13:00 114.75 0.00 -- 7.0 -- 42.0
01/15/2022 12:00 114.74 0.00 -- 5.0 -- 42.0
01/15/2022 11:00 114.75 0.00 -- 3.0 -- 42.0
01/15/2022 10:00 114.75 0.00 -- 1.0 -- 42.0
01/15/2022 09:00 114.75 0.00 -- -1.0 -- 42.5
01/15/2022 08:00 114.75 0.00 -- -1.0 -- 43.0
01/15/2022 07:00 114.76 0.00 -- 0.0 -- 43.0
01/15/2022 06:00 114.76 0.00 -- 2.0 -- 43.5
01/15/2022 05:00 114.77 0.00 -- 3.0 -- 44.0
01/15/2022 04:00 114.78 0.00 -- 4.0 -- 45.0
01/15/2022 03:00 114.79 0.00 -- 5.0 -- 46.3
01/15/2022 02:00 114.80 0.00 -- 7.0 -- 46.5
01/15/2022 01:00 114.81 0.00 -- 8.0 -- 47.3
01/15/2022 00:00 114.81 0.00 0.00 10.0 -- 48.0
01/14/2022 23:00 114.82 0.00 -- 12.0 -- 48.0
01/14/2022 22:00 114.82 0.00 -- 17.0 -- 48.0
01/14/2022 21:00 114.82 0.00 -- 21.0 -- 48.5
01/14/2022 20:00 114.82 0.00 -- 26.0 -- 48.0
01/14/2022 19:00 114.81 0.00 -- 29.0 -- 48.0
01/14/2022 18:00 114.82 0.00 -- 32.0 -- 48.0
01/14/2022 17:00 114.81 0.00 -- 35.0 -- 47.8
01/14/2022 16:00 114.81 0.00 -- 38.0 -- 47.5
01/14/2022 15:00 114.81 0.00 -- 38.0 -- 47.8
01/14/2022 14:00 114.81 0.01 -- 39.0 -- 48.0
01/14/2022 13:00 114.82 0.01 -- 40.0 -- 48.0
01/14/2022 12:00 114.82 0.01 -- 39.0 -- 48.0
01/14/2022 11:00 114.81 0.00 -- 37.0 -- 48.0
01/14/2022 10:00 114.82 0.00 -- 34.0 -- 48.0
01/14/2022 09:00 114.82 0.00 -- 32.0 -- 48.0
01/14/2022 08:00 114.81 0.00 -- 31.0 -- 48.0
01/14/2022 07:00 114.81 0.00 -- 31.0 -- 48.0
01/14/2022 06:00 114.81 0.00 -- 32.0 -- 47.8
01/14/2022 05:00 114.81 0.00 -- 31.0 -- 47.8
01/14/2022 04:00 114.81 0.00 -- 31.0 -- 47.8
01/14/2022 03:00 114.81 0.00 -- 31.0 -- 47.3
01/14/2022 02:00 114.81 0.00 -- 30.0 -- 47.3
01/14/2022 01:00 114.80 0.00 -- 29.0 -- 47.0
01/14/2022 00:00 114.81 0.00 0.03 28.0 -- 47.0
01/13/2022 23:00 114.81 0.00 -- 28.0 -- 47.0
01/13/2022 22:00 114.81 0.00 -- 27.0 -- 47.0
01/13/2022 21:00 114.80 0.00 -- 28.0 -- 47.0
01/13/2022 20:00 114.80 0.00 -- 28.0 -- 46.8
01/13/2022 19:00 114.80 0.00 -- 29.0 -- 46.5
01/13/2022 18:00 114.80 0.00 -- 31.0 -- 46.3
01/13/2022 17:00 114.79 0.00 -- 33.0 -- 46.0
01/13/2022 16:00 114.79 0.00 -- 39.0 -- 46.0
01/13/2022 15:00 114.79 0.01 -- 41.0 -- 45.8
01/13/2022 14:00 114.79 0.00 -- 41.0 -- 45.3
01/13/2022 13:00 114.79 0.00 -- 39.0 -- 45.5
01/13/2022 12:00 114.79 0.00 -- 37.0 -- 45.0
01/13/2022 11:00 114.79 0.00 -- 34.0 -- 45.0
01/13/2022 10:00 114.79 0.00 -- 32.0 -- 45.0
01/13/2022 09:00 114.78 0.00 -- 29.0 -- 45.0
01/13/2022 08:00 114.78 0.00 -- 28.0 -- 45.0
01/13/2022 07:00 114.78 0.00 -- 27.0 -- 44.0
01/13/2022 06:00 114.77 0.00 -- 26.0 -- 44.0
01/13/2022 05:00 114.77 0.00 -- 28.0 -- 44.0
01/13/2022 04:00 114.77 0.00 -- 27.0 -- 43.5
01/13/2022 03:00 114.77 0.00 -- 28.0 -- 43.5
01/13/2022 02:00 114.76 0.00 -- 29.0 -- 43.0
01/13/2022 01:00 114.76 0.00 -- 28.0 -- 43.0
01/13/2022 00:00 114.76 0.00 0.01 29.0 -- 43.0
01/12/2022 23:00 114.76 0.00 -- 31.0 -- 43.0
01/12/2022 22:00 114.76 0.00 -- 31.0 -- 42.8
01/12/2022 21:00 114.76 0.00 -- 32.0 -- 43.0
01/12/2022 20:00 114.75 0.00 -- 32.0 -- 42.8
01/12/2022 19:00 114.75 0.00 -- 32.0 -- 42.8
01/12/2022 18:00 114.75 0.00 -- 32.0 -- 42.0
01/12/2022 17:00 114.75 0.00 -- 32.0 -- 42.3
01/12/2022 16:00 114.75 0.00 -- 33.0 -- 42.5
01/12/2022 15:00 114.75 0.00 -- 34.0 -- 42.8
01/12/2022 14:00 114.75 0.00 -- 34.0 -- 42.8
01/12/2022 13:00 114.76 0.00 -- 32.0 -- 43.0
01/12/2022 12:00 114.76 0.00 -- 29.0 -- 43.0
01/12/2022 11:00 114.77 0.00 -- 25.0 -- 43.0
01/12/2022 10:00 114.77 0.00 -- 21.0 -- 43.8
01/12/2022 09:00 114.77 0.00 -- 15.0 -- 44.0
01/12/2022 08:00 114.77 0.00 -- 11.0 -- 44.0
01/12/2022 07:00 114.78 0.00 -- 9.0 -- 44.3
01/12/2022 06:00 114.78 0.00 -- 9.0 -- 45.0
01/12/2022 05:00 114.78 0.00 -- 6.0 -- 45.0
01/12/2022 04:00 114.78 0.00 -- 5.0 -- 45.0
01/12/2022 03:00 114.78 0.00 -- 4.0 -- 45.0
01/12/2022 02:00 114.79 0.00 -- 4.0 -- 45.3
01/12/2022 01:00 114.79 0.00 -- 1.0 -- 45.8
01/12/2022 00:00 114.79 0.00 0.00 1.0 -- 46.0
01/11/2022 23:00 114.80 0.00 -- 2.0 -- 46.0
01/11/2022 22:00 114.80 0.00 -- 3.0 -- 46.0
01/11/2022 21:00 114.80 0.00 -- 2.0 -- 46.5
01/11/2022 20:00 114.80 0.00 -- 3.0 -- 46.5
01/11/2022 19:00 114.80 0.00 -- 4.0 -- 47.0
01/11/2022 18:00 114.81 0.00 -- 7.0 -- 47.0
01/11/2022 17:00 114.81 0.00 -- 8.0 -- 46.8
01/11/2022 16:00 114.80 0.00 -- 9.0 -- 47.3
01/11/2022 15:00 114.81 0.00 -- 9.0 -- 46.8
01/11/2022 14:00 114.79 0.00 -- 9.0 -- 47.0
01/11/2022 13:00 114.80 0.00 -- 8.0 -- 46.5
01/11/2022 12:00 114.80 0.00 -- 6.0 -- 46.5
01/11/2022 11:00 114.80 0.00 -- 5.0 -- 47.5
01/11/2022 10:00 114.81 0.00 -- 4.0 -- 47.5
01/11/2022 09:00 114.81 0.00 -- 4.0 -- 47.8
01/11/2022 08:00 114.83 0.00 -- 4.0 -- 49.0
01/11/2022 07:00 114.83 0.00 -- 5.0 -- 49.5
01/11/2022 06:00 114.82 0.00 -- 7.0 -- 49.5
01/11/2022 05:00 114.84 0.00 -- 8.0 -- 50.3
01/11/2022 04:00 114.83 0.00 -- 11.0 -- 50.5
01/11/2022 03:00 114.84 0.00 -- 13.0 -- 50.8
01/11/2022 02:00 114.85 0.00 -- 15.0 -- 51.0
01/11/2022 01:00 114.85 0.00 -- 17.0 -- 51.0
01/11/2022 00:00 114.85 0.00 0.00 18.0 -- 51.3
01/10/2022 23:00 114.85 0.00 -- 19.0 -- 51.3
01/10/2022 22:00 114.85 0.00 -- 19.0 -- 52.0
01/10/2022 21:00 114.85 0.00 -- 19.0 -- 52.0
01/10/2022 20:00 114.86 0.00 -- 21.0 -- 52.3
01/10/2022 19:00 114.86 0.00 -- 23.0 -- 53.0
01/10/2022 18:00 114.87 0.00 -- 23.0 -- 53.5
01/10/2022 17:00 114.88 0.00 -- 24.0 -- 56.0
01/10/2022 16:00 114.90 0.00 -- 25.0 -- 58.3
01/10/2022 15:00 114.91 0.00 -- 26.0 -- 59.0
01/10/2022 14:00 114.92 0.00 -- 26.0 -- 59.5
01/10/2022 13:00 114.91 0.00 -- 27.0 -- 58.8
01/10/2022 12:00 114.91 0.00 -- 26.0 -- 58.5
01/10/2022 11:00 114.91 0.00 -- 26.0 -- 58.0
01/10/2022 10:00 114.89 0.00 -- 24.0 -- 54.5
01/10/2022 09:00 114.88 0.00 -- 24.0 -- 55.3
01/10/2022 08:00 114.89 0.00 -- 25.0 -- 57.3
01/10/2022 07:00 114.91 0.00 -- 26.0 -- 59.8
01/10/2022 06:00 114.92 0.00 -- 28.0 -- 59.8
01/10/2022 05:00 114.92 0.51 -- 30.0 -- 60.5
01/10/2022 04:00 114.93 0.00 -- 32.0 -- 60.5
01/10/2022 03:00 114.93 0.04 -- 34.0 -- 60.5
01/10/2022 02:00 114.92 0.00 -- 37.0 -- 59.8
01/10/2022 01:00 114.92 0.02 -- 38.0 -- 59.0
01/10/2022 00:00 114.91 0.02 0.57 39.0 -- 58.0
01/09/2022 23:00 114.90 0.03 -- 39.0 -- 58.0
01/09/2022 22:00 114.90 0.01 -- 38.0 -- 57.5
01/09/2022 21:00 114.91 0.03 -- 38.0 -- 58.0
01/09/2022 20:00 114.90 0.03 -- 38.0 -- 57.8
01/09/2022 19:00 114.90 0.03 -- 38.0 -- 57.5
01/09/2022 18:00 114.90 0.04 -- 38.0 -- 57.0
01/09/2022 17:00 114.90 0.04 -- 39.0 -- 56.8
01/09/2022 16:00 114.89 0.03 -- 38.0 -- 56.0
01/09/2022 15:00 114.89 0.00 -- 39.0 -- 56.0
01/09/2022 14:00 114.89 0.01 -- 39.0 -- 56.0
01/09/2022 13:00 114.89 0.00 -- 37.0 -- 55.3
01/09/2022 12:00 114.88 0.00 -- 34.0 -- 55.0
01/09/2022 11:00 114.88 0.00 -- 34.0 -- 55.0
01/09/2022 10:00 114.88 0.00 -- 33.0 -- 55.0
01/09/2022 09:00 114.88 0.00 -- 31.0 -- 55.0
01/09/2022 08:00 114.88 0.00 -- 29.0 -- 54.8
01/09/2022 07:00 114.88 0.00 -- 28.0 -- 55.0
01/09/2022 06:00 114.88 0.00 -- 26.0 -- 55.0
01/09/2022 05:00 114.88 0.00 -- 25.0 -- 55.0
01/09/2022 04:00 114.88 0.00 -- 22.0 -- 55.0
01/09/2022 03:00 114.89 0.00 -- 18.0 -- 55.3
01/09/2022 02:00 114.88 0.00 -- 14.0 -- 55.3
01/09/2022 01:00 114.89 0.00 -- 13.0 -- 55.5
01/09/2022 00:00 114.89 0.00 0.27 11.0 -- 55.5
01/08/2022 23:00 -- -- -- -- -- --
01/08/2022 22:00 -- -- -- -- -- --
01/08/2022 21:00 -- -- -- -- -- --
01/08/2022 20:00 -- -- -- -- -- --
01/08/2022 19:00 -- -- -- -- -- --
01/08/2022 18:00 -- -- -- -- -- --
01/08/2022 17:00 -- -- -- -- -- --
01/08/2022 16:00 -- -- -- -- -- --
01/08/2022 15:00 -- -- -- -- -- --
01/08/2022 14:00 -- -- -- -- -- --
01/08/2022 13:00 -- -- -- -- -- --
01/08/2022 12:00 -- -- -- -- -- --
01/08/2022 11:00 -- -- -- -- -- --
01/08/2022 10:00 -- -- -- -- -- --
01/08/2022 09:00 -- -- -- -- -- --
01/08/2022 08:00 -- -- -- -- -- --
01/08/2022 07:00 -- -- -- -- -- --
01/08/2022 06:00 -- -- -- -- -- --
01/08/2022 05:00 -- -- -- -- -- --
01/08/2022 04:00 -- -- -- -- -- --
01/08/2022 03:00 -- -- -- -- -- --
01/08/2022 02:00 -- -- -- -- -- --
01/08/2022 01:00 -- -- -- -- -- --
01/08/2022 00:00 -- -- -- -- -- --